AEA445 LEMG-LECO

Flight info

Callsign AEA445
Flight time 1h 20m
Altitude 34000
Route BLN DCT MORAL DCT BEXID DCT VTB/N0447F330 L155 ZMR N733 DESAT/N0449F340 DCT LOMDA
Aircraft B738/M-SDE2E3FGHIRWXY/LB1

Departure

Time 2026-05-08 10:52
Airport Málaga-Costa del Sol Airport (LEMG)

Arrival

Time 2026-05-08 12:13
Airport A Coruña Airport (LECO)
Time Latitude Longitude Altitude Speed Heading
2026-05-08 10:22 36.67632 -4.49421 41 ft 0 kts 41°
2026-05-08 10:39 36.67631 -4.49422 41 ft 1 kts 41°
2026-05-08 10:40 36.67615 -4.49440 41 ft 4 kts 23°
2026-05-08 10:40 36.67593 -4.49440 39 ft 4 kts 321°
2026-05-08 10:40 36.67579 -4.49424 37 ft 1 kts 311°
2026-05-08 10:40 36.67577 -4.49421 38 ft 0 kts 311°
2026-05-08 10:44 36.67593 -4.49443 39 ft 6 kts 311°
2026-05-08 10:45 36.67619 -4.49483 41 ft 6 kts 296°
2026-05-08 10:45 36.67622 -4.49535 41 ft 6 kts 259°
2026-05-08 10:45 36.67607 -4.49586 41 ft 7 kts 246°
2026-05-08 10:45 36.67578 -4.49646 41 ft 9 kts 232°
2026-05-08 10:46 36.67569 -4.49723 40 ft 10 kts 295°
2026-05-08 10:46 36.67611 -4.49785 42 ft 9 kts 311°
2026-05-08 10:46 36.67653 -4.49845 42 ft 9 kts 312°
2026-05-08 10:46 36.67695 -4.49903 42 ft 9 kts 312°
2026-05-08 10:47 36.67742 -4.49967 43 ft 13 kts 312°
2026-05-08 10:47 36.67808 -4.50057 43 ft 14 kts 312°
2026-05-08 10:47 36.67871 -4.50147 43 ft 13 kts 309°
2026-05-08 10:47 36.67931 -4.50232 44 ft 13 kts 311°
2026-05-08 10:48 36.67981 -4.50302 43 ft 13 kts 312°
2026-05-08 10:48 36.68038 -4.50381 43 ft 12 kts 312°
2026-05-08 10:48 36.68094 -4.50461 43 ft 12 kts 310°
2026-05-08 10:48 36.68147 -4.50538 43 ft 12 kts 310°
2026-05-08 10:49 36.68201 -4.50612 44 ft 11 kts 313°
2026-05-08 10:49 36.68254 -4.50683 44 ft 11 kts 313°
2026-05-08 10:49 36.68303 -4.50754 45 ft 11 kts 311°
2026-05-08 10:49 36.68352 -4.50823 48 ft 10 kts 311°
2026-05-08 10:50 36.68399 -4.50890 49 ft 10 kts 311°
2026-05-08 10:50 36.68445 -4.50955 50 ft 10 kts 311°
2026-05-08 10:50 36.68489 -4.51018 52 ft 10 kts 308°
2026-05-08 10:50 36.68496 -4.51095 51 ft 9 kts 246°
2026-05-08 10:51 36.68441 -4.51130 51 ft 9 kts 193°
2026-05-08 10:51 36.68380 -4.51146 55 ft 8 kts 184°
2026-05-08 10:51 36.68350 -4.51114 59 ft 0 kts 128°
2026-05-08 10:51 36.68347 -4.51110 59 ft 1 kts 128°
2026-05-08 10:52 36.68330 -4.51084 53 ft 13 kts 129°
2026-05-08 10:52 36.68044 -4.50682 55 ft 109 kts 132°
2026-05-08 10:52 36.67397 -4.49725 355 ft 164 kts 128°
2026-05-08 10:52 36.66610 -4.48608 1382 ft 182 kts 130°
2026-05-08 10:53 36.65701 -4.47386 2317 ft 197 kts 133°
2026-05-08 10:53 36.64735 -4.46110 3023 ft 207 kts 133°
2026-05-08 10:53 36.63736 -4.44755 3412 ft 219 kts 131°
2026-05-08 10:53 36.63067 -4.43798 3741 ft 222 kts 131°
2026-05-08 10:54 36.62038 -4.42330 4288 ft 225 kts 131°
2026-05-08 10:54 36.60991 -4.40843 4761 ft 232 kts 132°
2026-05-08 10:54 36.60007 -4.39227 5231 ft 239 kts 117°
2026-05-08 10:54 36.59582 -4.37180 5717 ft 250 kts 103°
2026-05-08 10:55 36.59242 -4.35047 6410 ft 253 kts 103°
2026-05-08 10:55 36.58885 -4.32889 7073 ft 256 kts 104°
2026-05-08 10:55 36.58520 -4.30702 7705 ft 263 kts 104°
2026-05-08 10:55 36.58512 -4.28387 8274 ft 277 kts 74°
2026-05-08 10:56 36.59472 -4.26302 8981 ft 283 kts 52°
2026-05-08 10:56 36.60710 -4.24381 9375 ft 285 kts 51°
2026-05-08 10:56 36.61996 -4.22474 9492 ft 293 kts 43°
2026-05-08 10:56 36.63769 -4.21213 9634 ft 308 kts 17°
2026-05-08 10:57 36.65893 -4.20385 9841 ft 332 kts 14°
2026-05-08 10:57 36.68187 -4.19547 10054 ft 353 kts 14°
2026-05-08 10:57 36.73011 -4.17725 11211 ft 367 kts 15°
2026-05-08 10:58 36.75463 -4.16758 11921 ft 371 kts 15°
2026-05-08 10:58 36.77941 -4.15762 12594 ft 377 kts 15°
2026-05-08 10:58 36.80452 -4.14741 13295 ft 382 kts 15°
2026-05-08 10:58 36.82988 -4.13702 13985 ft 386 kts 15°
2026-05-08 10:59 36.85555 -4.12646 14618 ft 391 kts 15°
2026-05-08 10:59 36.88155 -4.11576 15301 ft 395 kts 15°
2026-05-08 10:59 36.90784 -4.10493 15987 ft 400 kts 14°
2026-05-08 10:59 36.93412 -4.09409 16677 ft 405 kts 14°
2026-05-08 11:00 36.96100 -4.08299 17365 ft 409 kts 14°
2026-05-08 11:00 36.98821 -4.07176 17996 ft 414 kts 14°
2026-05-08 11:00 37.01573 -4.06037 18619 ft 418 kts 14°
2026-05-08 11:00 37.04345 -4.04890 19179 ft 422 kts 14°
2026-05-08 11:01 37.07152 -4.03728 19771 ft 426 kts 13°
2026-05-08 11:01 37.09976 -4.02557 20384 ft 429 kts 13°
2026-05-08 11:01 37.12819 -4.01377 20973 ft 432 kts 13°
2026-05-08 11:01 37.15684 -4.00188 21526 ft 435 kts 13°
2026-05-08 11:02 37.18575 -3.98989 22075 ft 439 kts 13°
2026-05-08 11:02 37.24436 -3.96734 23130 ft 445 kts 11°
2026-05-08 11:02 37.27420 -3.95644 23603 ft 449 kts 10°
2026-05-08 11:03 37.30438 -3.94544 24059 ft 452 kts 10°
2026-05-08 11:03 37.33465 -3.93433 24494 ft 456 kts 10°
2026-05-08 11:03 37.36521 -3.92304 24909 ft 459 kts 10°
2026-05-08 11:03 37.39595 -3.91160 25324 ft 462 kts 10°
2026-05-08 11:04 37.42691 -3.90002 25764 ft 465 kts 10°
2026-05-08 11:04 37.45806 -3.88835 26143 ft 469 kts 10°
2026-05-08 11:04 37.48937 -3.87659 26546 ft 471 kts 10°
2026-05-08 11:04 37.52083 -3.86476 26915 ft 473 kts 10°
2026-05-08 11:05 37.55244 -3.85286 27248 ft 476 kts 10°
2026-05-08 11:05 37.58390 -3.84102 27519 ft 479 kts 10°
2026-05-08 11:05 37.61593 -3.82896 27815 ft 481 kts
2026-05-08 11:05 37.64800 -3.81687 28174 ft 482 kts
2026-05-08 11:06 37.68016 -3.80473 28467 ft 483 kts 10°
2026-05-08 11:06 37.71259 -3.79249 28711 ft 487 kts 10°
2026-05-08 11:06 37.74522 -3.78017 28931 ft 490 kts 10°
2026-05-08 11:06 37.77793 -3.76779 29222 ft 492 kts 10°
2026-05-08 11:07 37.81082 -3.75532 29526 ft 493 kts
2026-05-08 11:07 37.84380 -3.74282 29830 ft 494 kts
2026-05-08 11:07 37.87075 -3.73259 30029 ft 496 kts
2026-05-08 11:07 37.89501 -3.72338 30171 ft 498 kts
2026-05-08 11:08 37.92786 -3.71090 30392 ft 499 kts 10°
2026-05-08 11:08 37.96121 -3.69822 30623 ft 500 kts
2026-05-08 11:08 37.99460 -3.68550 30834 ft 501 kts
2026-05-08 11:08 38.02804 -3.67274 31091 ft 502 kts
2026-05-08 11:09 38.06151 -3.65996 31415 ft 501 kts
2026-05-08 11:09 38.09487 -3.64722 31755 ft 499 kts
2026-05-08 11:09 38.12811 -3.63452 32066 ft 499 kts
2026-05-08 11:09 38.16151 -3.62373 32376 ft 491 kts
2026-05-08 11:10 38.19510 -3.61894 32690 ft 483 kts 356°
2026-05-08 11:10 38.22857 -3.61596 32986 ft 481 kts 355°
2026-05-08 11:10 38.26170 -3.61333 33259 ft 481 kts 355°
2026-05-08 11:10 38.29524 -3.61062 33553 ft 481 kts 355°
2026-05-08 11:11 38.32856 -3.60775 33873 ft 480 kts 355°
2026-05-08 11:11 38.39573 -3.60152 33938 ft 485 kts 356°
2026-05-08 11:12 38.46282 -3.59493 33938 ft 481 kts 356°
2026-05-08 11:12 38.52942 -3.58833 33944 ft 479 kts 356°
2026-05-08 11:13 38.59586 -3.58183 33931 ft 479 kts 356°
2026-05-08 11:13 38.66244 -3.57532 33944 ft 479 kts 356°
2026-05-08 11:14 38.72863 -3.56882 33926 ft 480 kts 356°
2026-05-08 11:14 38.79523 -3.56225 33928 ft 480 kts 356°
2026-05-08 11:15 38.86185 -3.55568 33951 ft 480 kts 357°
2026-05-08 11:15 38.92867 -3.54907 33938 ft 481 kts 357°
2026-05-08 11:16 38.99550 -3.54245 33934 ft 482 kts 357°
2026-05-08 11:16 39.06233 -3.53585 33934 ft 482 kts 357°
2026-05-08 11:17 39.12927 -3.52925 33942 ft 482 kts 357°
2026-05-08 11:17 39.19581 -3.52267 33935 ft 483 kts 357°
2026-05-08 11:18 39.26288 -3.51602 33937 ft 483 kts 357°
2026-05-08 11:18 39.32995 -3.50936 33946 ft 484 kts 358°
2026-05-08 11:19 39.39716 -3.50268 33950 ft 485 kts 358°
2026-05-08 11:19 39.46451 -3.49596 33945 ft 486 kts 358°
2026-05-08 11:20 39.53207 -3.48920 33968 ft 486 kts 359°
2026-05-08 11:20 39.59924 -3.48247 33953 ft 488 kts 359°
2026-05-08 11:21 39.66700 -3.47559 33951 ft 488 kts 359°
2026-05-08 11:21 39.73473 -3.46908 33940 ft 486 kts 354°
2026-05-08 11:21 39.76754 -3.47500 33977 ft 469 kts 336°
2026-05-08 11:22 39.79713 -3.49153 33940 ft 457 kts 322°
2026-05-08 11:22 39.82220 -3.51581 33958 ft 444 kts 309°
2026-05-08 11:22 39.84398 -3.54406 33955 ft 443 kts 307°
2026-05-08 11:23 39.88636 -3.60160 33956 ft 443 kts 307°
2026-05-08 11:23 39.92911 -3.65944 33954 ft 444 kts 307°
2026-05-08 11:24 39.97234 -3.71718 33983 ft 445 kts 308°
2026-05-08 11:24 40.01583 -3.77503 33962 ft 446 kts 308°
2026-05-08 11:25 40.05938 -3.83304 33970 ft 451 kts 308°
2026-05-08 11:25 40.10350 -3.89202 33958 ft 460 kts 308°
2026-05-08 11:26 40.14823 -3.95182 33962 ft 460 kts 308°
2026-05-08 11:26 40.19291 -4.01168 33963 ft 459 kts 308°
2026-05-08 11:27 40.23750 -4.07159 33965 ft 459 kts 308°
2026-05-08 11:27 40.28207 -4.13158 33963 ft 459 kts 308°
2026-05-08 11:28 40.32654 -4.19158 33978 ft 459 kts 308°
2026-05-08 11:28 40.37114 -4.25167 33962 ft 460 kts 309°
2026-05-08 11:29 40.41848 -4.30864 33971 ft 463 kts 313°
2026-05-08 11:29 40.46679 -4.36406 33970 ft 464 kts 313°
2026-05-08 11:30 40.51521 -4.42042 33960 ft 465 kts 313°
2026-05-08 11:30 40.56345 -4.47726 33950 ft 466 kts 313°
2026-05-08 11:31 40.61168 -4.53423 33953 ft 466 kts 313°
2026-05-08 11:31 40.65993 -4.59126 33951 ft 466 kts 313°
2026-05-08 11:32 40.70819 -4.64838 33935 ft 465 kts 313°
2026-05-08 11:32 40.75601 -4.70512 33930 ft 465 kts 313°
2026-05-08 11:33 40.80397 -4.76213 33924 ft 463 kts 313°
2026-05-08 11:33 40.85179 -4.81910 33920 ft 461 kts 312°
2026-05-08 11:34 40.89928 -4.87579 33906 ft 458 kts 312°
2026-05-08 11:34 40.94634 -4.93207 33903 ft 455 kts 312°
2026-05-08 11:35 40.99308 -4.98810 33918 ft 452 kts 312°
2026-05-08 11:35 41.03955 -5.04394 33906 ft 450 kts 313°
2026-05-08 11:36 41.08601 -5.09987 33915 ft 451 kts 313°
2026-05-08 11:36 41.13176 -5.15506 33909 ft 453 kts 313°
2026-05-08 11:37 41.17850 -5.21156 33918 ft 455 kts 313°
2026-05-08 11:37 41.22514 -5.26802 33914 ft 458 kts 313°
2026-05-08 11:38 41.27235 -5.32529 33921 ft 461 kts 313°
2026-05-08 11:38 41.31989 -5.38310 33923 ft 464 kts 313°
2026-05-08 11:39 41.36766 -5.44129 33918 ft 466 kts 313°
2026-05-08 11:39 41.41540 -5.49957 33921 ft 465 kts 313°
2026-05-08 11:40 41.46310 -5.55792 33926 ft 465 kts 314°
2026-05-08 11:40 41.50279 -5.60656 33924 ft 466 kts 314°
2026-05-08 11:41 41.54687 -5.66913 33919 ft 460 kts 301°
2026-05-08 11:41 41.58316 -5.73944 33936 ft 459 kts 300°
2026-05-08 11:42 41.61919 -5.80998 33924 ft 459 kts 301°
2026-05-08 11:42 41.65559 -5.88027 33930 ft 463 kts 301°
2026-05-08 11:43 41.69272 -5.95168 33928 ft 470 kts 301°
2026-05-08 11:43 41.72979 -6.02303 33922 ft 470 kts 301°
2026-05-08 11:44 41.76703 -6.09494 33941 ft 469 kts 301°
2026-05-08 11:44 41.80382 -6.16612 33914 ft 458 kts 301°
2026-05-08 11:45 41.84414 -6.23281 33915 ft 470 kts 316°
2026-05-08 11:45 41.89632 -6.28788 33928 ft 483 kts 321°
2026-05-08 11:45 41.92339 -6.31517 33514 ft 490 kts 321°
2026-05-08 11:46 41.95050 -6.34257 32967 ft 485 kts 321°
2026-05-08 11:46 41.97725 -6.36982 32360 ft 480 kts 321°
2026-05-08 11:46 42.00364 -6.39695 31763 ft 477 kts 321°
2026-05-08 11:46 42.02998 -6.42424 31180 ft 475 kts 322°
2026-05-08 11:47 42.05613 -6.45146 30616 ft 474 kts 322°
2026-05-08 11:47 42.08186 -6.47830 30083 ft 473 kts 322°
2026-05-08 11:47 42.10777 -6.50537 29449 ft 470 kts 321°
2026-05-08 11:47 42.13351 -6.53229 28807 ft 468 kts 321°
2026-05-08 11:48 42.15924 -6.55923 28173 ft 468 kts 321°
2026-05-08 11:48 42.18501 -6.58623 27568 ft 467 kts 321°
2026-05-08 11:48 42.21057 -6.61302 26965 ft 463 kts 321°
2026-05-08 11:48 42.23588 -6.63959 26363 ft 459 kts 321°
2026-05-08 11:49 42.26098 -6.66595 25777 ft 455 kts 321°
2026-05-08 11:49 42.28586 -6.69211 25228 ft 451 kts 321°
2026-05-08 11:49 42.31054 -6.71809 24668 ft 448 kts 321°
2026-05-08 11:49 42.33474 -6.74359 24125 ft 445 kts 321°
2026-05-08 11:50 42.35903 -6.76921 23580 ft 441 kts 321°
2026-05-08 11:50 42.38315 -6.79468 22963 ft 438 kts 321°
2026-05-08 11:50 42.40703 -6.81993 22341 ft 435 kts 321°
2026-05-08 11:50 42.43085 -6.84513 21727 ft 433 kts 321°
2026-05-08 11:51 42.45454 -6.87022 21135 ft 431 kts 321°
2026-05-08 11:51 42.47813 -6.89523 20534 ft 429 kts 321°
2026-05-08 11:51 42.50161 -6.92015 19967 ft 427 kts 322°
2026-05-08 11:51 42.52493 -6.94491 19396 ft 425 kts 322°
2026-05-08 11:52 42.54821 -6.96962 18857 ft 423 kts 322°
2026-05-08 11:52 42.57135 -6.99427 18303 ft 422 kts 322°
2026-05-08 11:52 42.59449 -7.01893 17701 ft 420 kts 322°
2026-05-08 11:52 42.61713 -7.04308 17100 ft 418 kts 321°
2026-05-08 11:53 42.63998 -7.06746 16483 ft 416 kts 321°
2026-05-08 11:53 42.66268 -7.09171 15898 ft 414 kts 321°
2026-05-08 11:53 42.68523 -7.11584 15319 ft 411 kts 321°
2026-05-08 11:53 42.70764 -7.13981 14749 ft 408 kts 321°
2026-05-08 11:54 42.72985 -7.16361 14195 ft 405 kts 320°
2026-05-08 11:54 42.75186 -7.18721 13727 ft 400 kts 320°
2026-05-08 11:54 42.77353 -7.21047 13371 ft 391 kts 320°
2026-05-08 11:54 42.79464 -7.23313 13038 ft 382 kts 320°
2026-05-08 11:55 42.81534 -7.25539 12677 ft 376 kts 320°
2026-05-08 11:55 42.83566 -7.27726 12351 ft 369 kts 319°
2026-05-08 11:55 42.85527 -7.29932 11984 ft 361 kts 312°
2026-05-08 11:55 42.87116 -7.32530 11670 ft 354 kts 303°
2026-05-08 11:56 42.88562 -7.35225 11344 ft 351 kts 302°
2026-05-08 11:56 42.89985 -7.37933 11022 ft 350 kts 302°
2026-05-08 11:56 42.91412 -7.40642 10703 ft 357 kts 302°
2026-05-08 11:56 42.92924 -7.43503 10413 ft 387 kts 302°
2026-05-08 11:57 42.94569 -7.46591 10114 ft 411 kts 303°
2026-05-08 11:57 42.96207 -7.49629 9769 ft 390 kts 303°
2026-05-08 11:57 42.97779 -7.52517 9389 ft 367 kts 303°
2026-05-08 11:57 42.99261 -7.55238 9043 ft 347 kts 302°
2026-05-08 11:58 43.00663 -7.57818 8683 ft 331 kts 302°
2026-05-08 11:58 43.02006 -7.60297 8375 ft 316 kts 303°
2026-05-08 11:58 43.03276 -7.62644 8245 ft 298 kts 303°
2026-05-08 11:59 43.05671 -7.67082 8289 ft 287 kts 302°
2026-05-08 11:59 43.06857 -7.69289 8293 ft 289 kts 303°
2026-05-08 11:59 43.08047 -7.71502 8301 ft 289 kts 303°
2026-05-08 11:59 43.09239 -7.73719 8295 ft 289 kts 303°
2026-05-08 12:00 43.10429 -7.75931 8293 ft 288 kts 303°
2026-05-08 12:00 43.11619 -7.78145 8287 ft 288 kts 303°
2026-05-08 12:00 43.12806 -7.80355 8261 ft 288 kts 303°
2026-05-08 12:00 43.13993 -7.82567 8154 ft 289 kts 303°
2026-05-08 12:01 43.15185 -7.84789 7987 ft 289 kts 303°
2026-05-08 12:01 43.16378 -7.87014 7817 ft 290 kts 303°
2026-05-08 12:01 43.17561 -7.89223 7644 ft 290 kts 303°
2026-05-08 12:01 43.18754 -7.91450 7472 ft 288 kts 303°
2026-05-08 12:02 43.19931 -7.93649 7291 ft 283 kts 303°
2026-05-08 12:02 43.21090 -7.95814 7116 ft 281 kts 303°
2026-05-08 12:02 43.22241 -7.97971 6937 ft 280 kts 303°
2026-05-08 12:02 43.23394 -8.00132 6764 ft 280 kts 303°
2026-05-08 12:03 43.24543 -8.02287 6596 ft 280 kts 303°
2026-05-08 12:03 43.25692 -8.04443 6429 ft 280 kts 303°
2026-05-08 12:03 43.26842 -8.06600 6245 ft 279 kts 302°
2026-05-08 12:03 43.27985 -8.08746 6065 ft 278 kts 303°
2026-05-08 12:04 43.29108 -8.10860 5881 ft 277 kts 302°
2026-05-08 12:04 43.30294 -8.12984 5661 ft 278 kts 311°
2026-05-08 12:04 43.31944 -8.14275 5491 ft 283 kts 346°
2026-05-08 12:04 43.33884 -8.14195 5368 ft 280 kts 15°
2026-05-08 12:05 43.35702 -8.13247 5103 ft 281 kts 21°
2026-05-08 12:05 43.37589 -8.12502 4767 ft 281 kts
2026-05-08 12:05 43.39490 -8.12276 4395 ft 266 kts 358°
2026-05-08 12:05 43.41291 -8.12479 4014 ft 253 kts 349°
2026-05-08 12:06 43.42990 -8.12963 3674 ft 248 kts 343°
2026-05-08 12:06 43.44623 -8.13663 3312 ft 243 kts 336°
2026-05-08 12:06 43.46126 -8.14666 3049 ft 237 kts 328°
2026-05-08 12:06 43.47488 -8.15907 3027 ft 233 kts 320°
2026-05-08 12:07 43.48713 -8.17294 3000 ft 220 kts 315°
2026-05-08 12:07 43.49541 -8.18912 3006 ft 200 kts 281°
2026-05-08 12:07 43.49367 -8.20620 3012 ft 178 kts 234°
2026-05-08 12:07 43.48548 -8.21799 3048 ft 166 kts 222°
2026-05-08 12:08 43.47686 -8.22832 3026 ft 164 kts 217°
2026-05-08 12:08 43.46786 -8.23814 3029 ft 166 kts 217°
2026-05-08 12:08 43.45862 -8.24747 3009 ft 164 kts 213°
2026-05-08 12:08 43.44910 -8.25596 3007 ft 162 kts 212°
2026-05-08 12:09 43.43954 -8.26403 3015 ft 160 kts 211°
2026-05-08 12:09 43.42985 -8.27206 2994 ft 165 kts 211°
2026-05-08 12:09 43.41983 -8.28033 2809 ft 167 kts 210°
2026-05-08 12:09 43.41004 -8.28837 2602 ft 166 kts 211°
2026-05-08 12:10 43.40033 -8.29636 2381 ft 161 kts 210°
2026-05-08 12:10 43.39084 -8.30417 2168 ft 155 kts 210°
2026-05-08 12:10 43.38179 -8.31161 1984 ft 149 kts 211°
2026-05-08 12:10 43.37297 -8.31889 1743 ft 147 kts 212°
2026-05-08 12:11 43.36423 -8.32607 1549 ft 147 kts 211°
2026-05-08 12:11 43.35533 -8.33341 1370 ft 155 kts 210°
2026-05-08 12:11 43.34596 -8.34111 1159 ft 157 kts 211°
2026-05-08 12:11 43.33641 -8.34898 935 ft 160 kts 212°
2026-05-08 12:12 43.32676 -8.35693 737 ft 163 kts 212°
2026-05-08 12:12 43.31696 -8.36502 531 ft 167 kts 213°
2026-05-08 12:12 43.30704 -8.37322 372 ft 165 kts 210°
2026-05-08 12:12 43.29778 -8.38071 338 ft 121 kts 210°
2026-05-08 12:13 43.29381 -8.38391 335 ft 46 kts 211°
2026-05-08 12:13 43.29248 -8.38552 337 ft 15 kts 240°
2026-05-08 12:13 43.29198 -8.38545 336 ft 8 kts 100°
2026-05-08 12:13 43.29211 -8.38529 338 ft 5 kts 29°
2026-05-08 12:14 43.29270 -8.38484 336 ft 14 kts 29°
2026-05-08 12:14 43.29346 -8.38423 334 ft 15 kts 30°
2026-05-08 12:14 43.29463 -8.38330 335 ft 24 kts 30°
2026-05-08 12:14 43.29627 -8.38197 334 ft 31 kts 31°
2026-05-08 12:15 43.29812 -8.38043 337 ft 26 kts 31°
2026-05-08 12:15 43.29907 -8.37980 344 ft 9 kts
2026-05-08 12:15 43.29955 -8.38022 338 ft 9 kts 308°
2026-05-08 12:15 43.30009 -8.38073 339 ft 10 kts 345°
2026-05-08 12:16 43.30076 -8.38069 339 ft 9 kts 13°
2026-05-08 12:16 43.30134 -8.38031 336 ft 9 kts 30°
2026-05-08 12:16 43.30170 -8.38011 336 ft 3 kts 344°
2026-05-08 12:16 43.30184 -8.38028 337 ft 2 kts 316°
2026-05-08 12:17 43.30193 -8.38037 339 ft 1 kts 345°
2026-05-08 12:17 43.30204 -8.38037 336 ft 1 kts 359°
2026-05-08 12:17 43.30206 -8.38037 336 ft 1 kts 359°
2026-05-08 12:17 43.30208 -8.38037 336 ft 0 kts 359°